[[{"header":{"parameterUnit":"m.s-1","parameterCategory":1,"la1":30.2991,"la2":30.254,"lo1":-89.0895,"lo2":-89.0444,"dy":0.0017,"dx":0.0017,"nx":28,"ny":28,"refTime":"2025-03-29T03:00:00:Z","depth":0,"parameterNumber":2,"parameterNumberName":"U-component_of_WINDS"},"data":[0,0,0,0,0,0,0,0,0,0,0,0,0,0,0,0,0,0,0,0,0,0,0,0,0,0,0,0,0,0,0,0,0,0,0,0,0,0,0,0,0,0,0,0,0,0,0,0,0,0,0,0,0,0,0,0,0,0,-6.3052,-6.3052,0,-6.3051,-6.3051,-6.3051,-6.2974,-6.2972,-6.297,-6.2968,-6.2966,-6.2968,-6.297,0,0,0,0,0,0,0,0,0,0,0,0,0,-6.2987,-6.2989,-6.3052,-6.3052,-6.3052,-6.3051,-6.3051,-6.3051,-6.2974,-6.2972,-6.2969,-6.2967,-6.2966,-6.2968,-6.297,0,0,0,0,0,0,0,0,0,0,0,0,0,-6.3004,-6.299,-6.3052,-6.3014,-6.301,-6.3051,-6.3051,-6.3051,-6.2975,-6.2972,-6.2969,-6.2966,-6.2965,-6.2968,-6.297,-6.3048,0,0,-6.2979,-6.298,0,0,0,0,0,0,0,0,-6.3003,-6.3006,-6.3019,-6.3016,-6.3012,-6.301,-6.3028,-6.305,-6.2976,-6.2988,-6.2968,-6.2965,-6.2983,-6.2984,-6.2991,-6.3048,-6.3047,-6.2979,-6.2981,-6.2982,-6.2983,0,0,0,0,0,0,0,-6.3002,-6.3006,-6.3051,-6.3019,-6.3015,-6.2997,-6.2996,-6.3031,-6.3003,-6.2987,-6.2981,-6.2982,-6.2981,-6.2988,-6.299,-6.3047,-6.2979,-6.2981,-6.2983,-6.2984,-6.3168,-6.3171,0,0,0,0,0,0,-6.3006,-6.3006,-6.3051,-6.3051,-6.3,-6.3,-6.2999,-6.3014,-6.3002,-6.2997,-6.2985,-6.2979,-6.2985,-6.2987,-6.299,-6.3078,-6.2982,-6.2984,-6.2986,-6.3164,-6.3168,-6.3172,0,0,0,0,0,0,-6.3005,-6.3011,-6.3051,-6.3027,-6.3031,-6.3004,-6.3021,-6.3015,-6.3022,-6.3,-6.2995,-6.2998,-6.2983,-6.2986,-6.3034,-6.3076,-6.2986,-6.2988,-6.3161,-6.3166,-6.317,-6.3255,0,0,0,0,0,0,-6.3004,-6.3011,-6.304,-6.3028,-6.3032,-6.3096,-6.3024,-6.3017,-6.3027,-6.3019,-6.3011,-6.3007,-6.2981,-6.303,-6.3037,-6.3079,-6.299,-6.3156,-6.3163,-6.3168,-6.3249,-6.3263,-6.3275,0,0,0,0,0,-6.3002,-6.3064,-6.3042,-6.3048,-6.3068,-6.3098,-6.31,-6.3069,-6.3031,-6.306,-6.3046,-6.3007,-6.3072,-6.3036,-6.3042,-6.3086,-6.3153,-6.3161,-6.3168,-6.3243,-6.326,-6.3274,0,0,0,0,0,0,-6.308,-6.3061,-6.3036,-6.3097,-6.31,-6.3085,-6.312,-6.3089,-6.3102,-6.3093,-6.3055,-6.3053,-6.3107,-6.3102,-6.3062,-6.316,-6.3106,-6.3115,-6.316,-6.3177,-6.3189,-6.3187,-6.2993,0,0,0,0,0,-6.3105,-6.3131,-6.3114,-6.3168,-6.3171,-6.3146,-6.3158,-6.3134,-6.3135,-6.3136,-6.3125,-6.3128,-6.3149,-6.3163,-6.3181,-6.3249,-6.3245,-6.3283,-6.3296,-6.3307,-6.3313,-6.3348,-6.3364,-6.3196,-6.3196,-6.3195,0,0,-6.3155,-6.3148,-6.3167,-6.3184,-6.3183,-6.3211,-6.3147,-6.3179,-6.3199,-6.3141,-6.3184,-6.3178,-6.3178,-6.3236,-6.3261,-6.3233,-6.336,-6.3316,-6.3325,-6.3325,-6.3357,-6.3373,-6.3387,-6.3201,-6.32,-6.3199,0,0,-6.3259,-6.3258,-6.3303,-6.3305,-6.3305,-6.3288,-6.3299,-6.329,-6.3283,-6.3327,-6.3284,-6.3308,-6.3345,-6.3347,-6.3352,-6.3462,-6.3426,-6.347,-6.3536,-6.357,-6.3583,-6.3594,-6.3631,-6.3644,-6.3477,-6.3478,-6.3478,0,-6.3321,-6.3361,-6.333,-6.3365,-6.3374,-6.3324,-6.3369,-6.3372,-6.3378,-6.3385,-6.3355,-6.3401,-6.3398,-6.3455,-6.3482,-6.3489,-6.35,-6.3468,-6.3584,-6.3595,-6.3605,-6.3639,-6.3653,-6.3483,-6.3482,-6.3482,-6.3481,0,-6.3436,-6.3465,-6.3502,-6.3509,-6.3523,-6.3563,-6.3538,-6.3556,-6.3532,-6.3519,-6.3564,-6.356,-6.3576,-6.3589,-6.3566,-6.3643,-6.3625,-6.3591,-6.3534,-6.3626,-6.3658,-6.3671,-6.349,-6.3488,-6.3487,-6.3485,0,0,-6.3585,-6.3578,-6.3591,-6.3594,-6.3593,-6.3614,-6.3654,-6.367,-6.3684,-6.3692,-6.3722,-6.3757,-6.3724,-6.3731,-6.3709,-6.3739,-6.3824,-6.37,-6.37,-6.372,-6.3906,-6.3929,-6.3945,-6.3802,-6.3805,-6.3807,-6.3905,0,-6.3684,-6.3749,-6.3723,-6.379,-6.3815,-6.3771,-6.3804,-6.3807,-6.3797,-6.3817,-6.3806,-6.383,-6.3787,-6.3791,-6.3819,-6.3807,-6.386,-6.3801,-6.3828,-6.3829,-6.3824,-6.3962,-6.3986,-6.4079,-6.3917,-6.3919,-6.3921,0,-6.3807,-6.382,-6.3889,-6.3884,-6.3894,-6.3924,-6.3937,-6.3958,-6.3961,-6.3952,-6.3961,-6.3932,-6.397,-6.3918,-6.3968,-6.3929,-6.3939,-6.3936,-6.3938,-6.3936,-6.3877,-6.396,-6.4108,-6.4121,-6.3941,-6.3939,-6.3938,0,-6.3905,-6.394,-6.3986,-6.399,-6.3986,-6.4008,-6.4008,-6.4008,-6.402,-6.4032,-6.4039,-6.4056,-6.4064,-6.4078,-6.4055,-6.402,-6.4108,-6.4054,-6.4099,-6.41,-6.4115,-6.4114,-6.4264,-6.413,-6.413,-6.4129,-6.4129,0,-6.4015,-6.4059,-6.403,-6.4057,-6.4105,-6.4077,-6.4124,-6.4119,-6.412,-6.4145,-6.411,-6.4134,-6.4104,-6.4126,-6.4109,-6.4152,-6.4157,-6.4149,-6.4143,-6.415,-6.4151,-6.4153,-6.4144,-6.4133,-6.4132,-6.4131,-6.4131,0,-6.413,-6.4113,-6.4159,-6.4153,-6.4152,-6.4187,-6.4181,-6.4206,-6.4196,-6.4228,-6.4235,-6.4217,-6.4241,-6.4221,-6.4244,-6.4233,-6.4289,-6.4276,-6.4288,-6.4282,-6.4327,-6.4322,-6.448,-6.4498,-6.4356,-6.4358,-6.4359,0,-6.42,-6.4232,-6.423,-6.4244,-6.4246,-6.4271,-6.4283,-6.4258,-6.4272,-6.4279,-6.4303,-6.4325,-6.434,-6.4381,-6.437,-6.4388,-6.4373,-6.4427,-6.4375,-6.438,-6.4369,-6.4366,-6.4368,-6.4436,-6.4438,-6.4439,-6.444,0,-6.4324,-6.4314,-6.4333,-6.435,-6.4366,-6.4378,-6.4387,-6.4402,-6.4376,-6.4394,-6.4418,-6.4431,-6.4456,-6.4477,-6.4492,-6.4491,-6.4461,-6.4458,-6.4469,-6.4473,-6.4477,-6.4472,-6.4312,-6.4453,-6.4452,-6.4451,-6.445,-6.445,-6.4416,-6.4442,-6.4444,-6.4467,-6.4472,-6.4482,-6.4505,-6.4498,-6.4518,-6.4536,-6.4521,-6.455,-6.4554,-6.457,-6.4574,-6.4596,-6.4573,-6.4589,-6.4592,-6.4596,-6.4601,-6.4478,-6.4599,-6.4599,-6.4598,-6.4598,-6.4598,0,-6.4535,-6.4535,-6.4557,-6.4571,-6.4589,-6.4563,-6.4572,-6.4588,-6.4614,-6.4621,-6.4637,-6.4666,-6.4687,-6.4679,-6.4697,-6.4717,-6.4704,-6.4722,-6.4718,-6.4718,-6.4622,-6.4609,-6.4733,-6.4733,-6.4732,-6.4732,-6.4732,-6.4732,-6.4599,-6.4641,-6.4633,-6.4678,-6.4678,-6.4707,-6.4714,-6.4723,-6.4727,-6.4761,-6.4778,-6.4774,-6.4774,-6.4793,-6.4811,-6.4808,-6.4815,-6.4838,-6.483,-6.4739,-6.4725,-6.4712,-6.47,-6.4841,-6.4841,-6.4924,-6.4925,-6.4925]},{"header":{"parameterUnit":"m.s-1","parameterCategory":1,"la1":30.2991,"la2":30.254,"lo1":-89.0895,"lo2":-89.0444,"dy":0.0017,"dx":0.0017,"nx":28,"ny":28,"refTime":"2025-03-29T03:00:00:Z","depth":0,"parameterNumber":3,"parameterNumberName":"V-component_of_WINDS"},"data":[0,0,0,0,0,0,0,0,0,0,0,0,0,0,0,0,0,0,0,0,0,0,0,0,0,0,0,0,0,0,0,0,0,0,0,0,0,0,0,0,0,0,0,0,0,0,0,0,0,0,0,0,0,0,0,0,0,0,3.5379,3.538,0,3.5521,3.5522,3.5524,3.5572,3.5571,3.5571,3.557,3.5716,3.572,3.5724,0,0,0,0,0,0,0,0,0,0,0,0,0,3.5151,3.5155,3.5379,3.5381,3.5382,3.552,3.5522,3.5524,3.5572,3.5571,3.557,3.557,3.5714,3.572,3.5725,0,0,0,0,0,0,0,0,0,0,0,0,0,3.5267,3.5156,3.5378,3.5423,3.5428,3.552,3.5522,3.5525,3.5572,3.5571,3.557,3.5569,3.5713,3.5719,3.5726,3.5784,0,0,3.5746,3.5749,0,0,0,0,0,0,0,0,3.526,3.5275,3.5414,3.542,3.5426,3.5528,3.5496,3.5612,3.5572,3.5517,3.557,3.5569,3.5654,3.5665,3.5694,3.5791,3.5797,3.5746,3.575,3.5753,3.5755,0,0,0,0,0,0,0,3.5252,3.527,3.5435,3.5416,3.5423,3.5436,3.5452,3.5518,3.5589,3.5522,3.5526,3.5542,3.5657,3.5687,3.5698,3.5799,3.5746,3.5752,3.5756,3.5759,3.5954,3.5955,0,0,0,0,0,0,3.5237,3.5263,3.543,3.5439,3.5339,3.5441,3.5458,3.5496,3.5588,3.5601,3.5543,3.5544,3.5676,3.569,3.5703,3.578,3.5753,3.5759,3.5763,3.5953,3.5954,3.5955,0,0,0,0,0,0,3.5232,3.5251,3.5425,3.5352,3.5375,3.5446,3.5488,3.5499,3.553,3.5604,3.5617,3.5561,3.5676,3.5694,3.5764,3.5785,3.5762,3.5768,3.5951,3.5953,3.5955,3.5932,0,0,0,0,0,0,3.5225,3.5249,3.5271,3.5352,3.5379,3.5483,3.5489,3.5503,3.5541,3.5544,3.5624,3.5636,3.5677,3.5754,3.5771,3.5794,3.5774,3.595,3.5952,3.5954,3.5931,3.5932,3.5934,0,0,0,0,0,3.5217,3.5259,3.5272,3.5292,3.5408,3.5484,3.5499,3.5545,3.5542,3.5566,3.5614,3.5634,3.578,3.5761,3.578,3.5805,3.5949,3.5951,3.5954,3.593,3.5932,3.5934,0,0,0,0,0,0,3.5179,3.527,3.5286,3.5356,3.5412,3.5492,3.5523,3.5545,3.5603,3.5603,3.5657,3.5675,3.5742,3.578,3.5758,3.5868,3.5865,3.5872,3.5841,3.5843,3.5844,3.5835,3.5779,0,0,0,0,0,3.5178,3.5232,3.5309,3.5363,3.539,3.5452,3.5486,3.5517,3.5577,3.5601,3.5654,3.5712,3.5771,3.5809,3.5867,3.5936,3.5956,3.5963,3.5965,3.5966,3.5971,3.6013,3.6018,3.5964,3.5964,3.5964,0,0,3.5178,3.5235,3.5265,3.5357,3.5404,3.5459,3.5471,3.5528,3.557,3.561,3.568,3.5721,3.5789,3.586,3.5894,3.5894,3.599,3.5969,3.5969,3.5975,3.6017,3.6022,3.6026,3.5966,3.5966,3.5966,0,0,3.5207,3.5254,3.5306,3.5353,3.5424,3.5465,3.5477,3.5554,3.5583,3.5655,3.5686,3.5736,3.5836,3.5885,3.5922,3.5971,3.5992,3.5988,3.5997,3.6037,3.6041,3.6045,3.6065,3.6071,3.5993,3.5993,3.5993,0,3.5198,3.5282,3.5329,3.5386,3.5426,3.5464,3.5517,3.5561,3.5647,3.5674,3.5674,3.5802,3.585,3.5934,3.5946,3.5974,3.5991,3.598,3.6036,3.6041,3.6046,3.6065,3.6072,3.5992,3.5993,3.5993,3.5993,0,3.5269,3.5327,3.536,3.5443,3.5487,3.5541,3.5597,3.5636,3.5663,3.5704,3.5777,3.5837,3.5909,3.5931,3.5957,3.6019,3.6017,3.6026,3.6024,3.6049,3.6068,3.6076,3.5991,3.5992,3.5992,3.5992,0,0,3.5278,3.5387,3.5399,3.5438,3.552,3.5566,3.5623,3.5694,3.5727,3.5785,3.5836,3.592,3.5929,3.5972,3.6004,3.6038,3.6076,3.6043,3.6046,3.6049,3.6151,3.6145,3.6153,3.609,3.6092,3.6093,3.6146,0,3.5319,3.5422,3.5467,3.555,3.5605,3.5643,3.5693,3.5749,3.5789,3.5842,3.5886,3.5947,3.5952,3.5979,3.6015,3.6064,3.6098,3.606,3.6139,3.6141,3.6123,3.6163,3.6157,3.6204,3.6153,3.6155,3.6155,0,3.5381,3.544,3.5529,3.5606,3.5631,3.5675,3.5745,3.5795,3.586,3.5887,3.5935,3.5966,3.6028,3.6021,3.6109,3.6082,3.6117,3.6146,3.6149,3.616,3.6151,3.6177,3.622,3.6228,3.6167,3.6166,3.6165,0,3.5381,3.5483,3.5551,3.5583,3.5674,3.5704,3.5743,3.5808,3.5848,3.5909,3.5936,3.6003,3.604,3.6092,3.614,3.613,3.6224,3.6221,3.625,3.6249,3.6269,3.6268,3.6321,3.6288,3.6288,3.6287,3.6287,0,3.5424,3.5477,3.5552,3.5594,3.5655,3.5706,3.5766,3.5808,3.5865,3.5916,3.5952,3.5999,3.606,3.6115,3.6153,3.6221,3.6237,3.6262,3.6272,3.626,3.6257,3.6285,3.6284,3.6289,3.6289,3.6289,3.6288,0,3.5435,3.5487,3.5564,3.5644,3.5665,3.5708,3.5777,3.5819,3.5861,3.5925,3.5943,3.601,3.6077,3.613,3.6217,3.6243,3.6315,3.6325,3.6294,3.6299,3.6326,3.6324,3.6401,3.6415,3.637,3.637,3.637,0,3.546,3.5502,3.5587,3.5624,3.5663,3.5722,3.5764,3.5816,3.5858,3.5936,3.597,3.6039,3.6098,3.6204,3.626,3.6327,3.6341,3.6363,3.6351,3.6339,3.6344,3.6342,3.6347,3.6365,3.6365,3.6365,3.6365,0,3.5499,3.5523,3.5582,3.565,3.5699,3.5755,3.5813,3.5841,3.5903,3.5949,3.6019,3.6064,3.6154,3.6224,3.6297,3.6338,3.6363,3.6368,3.6379,3.6369,3.635,3.6363,3.63,3.6367,3.6367,3.6367,3.6367,3.6367,3.552,3.556,3.5627,3.5692,3.574,3.5793,3.5838,3.5885,3.5944,3.6022,3.6048,3.612,3.6186,3.6288,3.633,3.6387,3.6389,3.6404,3.6408,3.6412,3.6412,3.6339,3.64,3.64,3.64,3.6401,3.6401,0,3.5563,3.5608,3.5667,3.5746,3.5798,3.5816,3.588,3.5922,3.5985,3.6044,3.6102,3.6183,3.625,3.6312,3.6383,3.6418,3.6431,3.6435,3.6434,3.6444,3.6405,3.639,3.6423,3.6423,3.6423,3.6423,3.6423,3.6423,3.5591,3.5661,3.5693,3.5788,3.5833,3.5904,3.594,3.599,3.6037,3.6126,3.6183,3.6222,3.6283,3.6359,3.6423,3.644,3.6465,3.6467,3.6486,3.6449,3.6446,3.6443,3.643,3.6471,3.6471,3.6521,3.6522,3.6522]}]]